RH
21 20 16 16 17 19 21 28 39 43 50 57 55 63 66 57 60 52 46 34 36 36 42 54 65 53 45 20 6 6 21 39 18 5 4 5 31 65 40 24 17 15 15 13 14 13 12 10 10
19 19 17 16 16 18 22 30 25 29 30 40 40 55 60 59 55 52 43 33 53 58 36 46 62 55 43 28 12 6 11 27 20 5 4 8 21 29 25 18 17 16 16 13 12 11 12 10 11
20 21 21 21 19 17 20 26 25 28 34 30 40 53 49 48 42 54 44 41 52 69 46 40 51 48 40 30 18 7 9 21 13 4 6 10 16 18 19 17 16 16 16 16 16 14 12 11 12
22 22 21 20 19 19 18 21 23 36 42 32 32 45 45 36 47 46 43 41 39 66 51 33 47 48 38 28 22 12 8 11 7 5 7 11 13 13 15 15 16 16 15 16 16 14 11 11 13
20 19 15 16 16 17 18 21 22 24 22 31 31 46 43 45 33 41 40 40 55 54 38 35 46 45 42 34 25 16 10 11 11 5 5 6 6 6 7 9 11 14 16 15 15 14 12 12 15
6 7 7 8 10 10 13 18 19 19 13 24 32 41 36 39 33 36 51 42 44 64 57 36 45 41 43 41 36 23 13 12 28 7 5 5 5 5 5 5 5 8 14 16 16 15 13 13 15
2 2 4 5 4 8 15 10 11 9 16 24 30 36 28 34 35 37 58 52 56 54 77 35 35 37 42 41 40 33 18 13 23 25 6 6 5 6 5 5 5 6 13 16 16 16 15 14 14
2 2 4 4 5 10 10 16 25 17 16 33 36 34 24 25 40 32 50 47 57 50 59 38 33 33 34 38 37 35 28 18 14 23 23 6 5 6 6 5 6 7 13 17 17 17 16 16 15
3 3 2 2 5 11 9 13 20 30 38 34 43 32 30 25 40 38 36 42 42 51 34 39 38 34 28 30 32 34 30 23 20 28 19 7 6 7 6 6 6 7 12 17 19 19 17 15 16
4 3 4 4 7 10 10 10 13 16 38 36 31 28 33 29 31 28 34 36 39 52 34 33 34 35 30 26 24 27 31 28 24 32 25 10 9 8 8 8 7 8 15 19 22 18 18 17 16
5 4 6 6 8 7 7 9 10 14 26 30 30 28 27 27 27 34 47 42 45 54 38 32 32 33 33 28 24 20 19 27 27 34 32 15 13 11 10 9 8 9 17 24 28 20 18 18 16
7 6 5 6 7 9 8 8 9 14 13 16 16 16 18 24 32 33 54 52 56 57 53 36 32 30 32 30 28 23 18 20 26 32 38 20 17 13 11 10 8 11 20 29 34 23 19 19 16
9 9 9 8 8 10 9 10 10 10 12 16 16 19 37 36 36 40 54 62 64 59 68 57 38 34 31 31 29 27 22 18 22 27 42 38 24 15 12 10 9 12 23 35 39 27 20 19 17
13 11 10 10 11 12 13 11 12 11 10 10 14 28 49 37 32 34 38 47 50 68 66 65 60 41 36 32 31 29 25 20 24 35 28 36 33 15 12 11 10 13 26 42 40 29 22 19 18
17 16 14 14 12 14 14 13 13 13 12 12 10 24 30 36 38 35 40 18 47 61 62 57 52 54 42 38 34 29 28 24 21 30 27 46 51 16 13 12 11 14 26 45 45 33 24 20 19
14 16 16 18 15 15 16 15 15 15 25 25 17 22 31 42 45 48 52 33 26 23 56 58 66 71 49 44 37 33 30 29 25 21 23 39 62 25 13 12 12 13 22 38 54 41 29 25 21
16 16 19 18 18 16 18 20 17 16 17 25 52 31 33 46 52 54 55 50 45 32 20 38 60 69 57 51 44 37 34 32 30 24 20 23 33 16 14 14 13 14 17 29 48 52 48 32 24
19 19 20 21 16 18 18 22 22 25 20 17 17 43 37 25 39 39 39 44 42 29 18 17 56 68 60 56 51 43 37 34 31 24 18 19 16 16 18 16 14 14 15 28 42 59 66 66 36
21 20 19 18 18 19 19 20 21 24 24 25 21 16 22 35 20 24 29 21 16 10 8 31 66 74 66 66 62 59 45 38 35 29 24 20 18 18 23 18 16 16 16 20 41 53 63 70 69
30 27 22 21 18 14 13 16 18 26 26 28 26 22 18 17 30 23 25 28 29 16 15 35 66 75 70 90 78 75 59 48 43 37 34 30 28 26 23 22 22 20 18 18 19 46 68 71 70
36 33 32 35 26 20 15 10 20 27 36 48 33 24 21 19 19 37 18 17 24 17 33 29 54 72 82 73 75 92 90 74 56 46 40 42 39 39 39 36 31 24 24 21 22 32 62 76 74
42 42 41 39 38 36 24 27 20 36 35 51 37 27 22 18 16 37 61 25 19 14 43 49 67 74 72 82 90 89 71 70 72 60 50 56 68 51 52 54 52 39 29 26 24 26 36 63 75
45 45 46 45 42 47 22 27 97 76 63 59 63 45 28 19 16 17 44 55 45 37 54 54 53 57 77 91 91 97 98 76 94 78 56 74 74 71 60 63 64 62 46 33 29 27 28 35 70
44 43 37 44 43 52 23 30 97 84 92 96 100 87 79 32 19 30 66 43 44 46 47 53 76 87 82 86 98 99 98 98 85 84 76 80 81 70 67 67 69 68 61 50 41 35 31 31 57
52 54 58 63 68 59 40 55 100 91 88 95 97 100 100 96 51 56 84 51 43 44 46 52 77 92 85 93 94 92 99 88 98 98 85 82 82 70 70 74 75 72 76 70 63 52 42 38 41
79 85 88 80 79 74 50 89 86 83 87 94 97 98 100 97 100 79 46 45 47 42 43 54 73 76 79 79 91 99 99 98 96 95 89 90 83 76 77 81 82 82 80 79 79 73 67 48 39
82 92 92 95 87 90 74 98 91 100 79 95 96 96 100 99 100 100 84 62 48 40 46 66 80 70 66 76 81 83 85 94 94 94 94 96 90 81 79 89 91 90 91 93 89 88 90 75 54
73 92 98 96 96 78 95 94 97 66 64 85 90 95 98 98 98 100 98 71 49 48 59 63 69 67 53 40 39 66 71 74 81 94 98 90 90 93 92 94 98 98 96 98 98 94 91 81 72
68 95 97 98 95 98 94 97 99 88 85 86 88 95 96 99 99 97 100 92 80 66 60 64 54 47 41 36 43 65 64 68 64 69 69 86 81 88 76 81 92 99 98 99 98 100 96 96 92
77 92 98 98 96 96 94 95 95 88 88 88 82 93 93 97 99 100 99 99 100 92 76 51 41 42 33 28 39 58 62 69 64 56 62 75 69 63 78 59 69 84 96 97 96 97 96 89 96
Wind_Speed
17 12 10 11 7 5 2 5 10 6 8 9 11 7 11 8 8 7 6 6 13 13 13 14 14 12 9 9 10 12 14 13 12 12 12 14 16 14 11 10 10 11 11 11 10 10 9 11 12
13 10 8 10 8 10 2 12 5 9 5 6 9 3 3 11 10 8 19 8 8 11 13 13 15 13 11 10 10 10 13 13 12 12 12 13 14 13 11 10 10 10 10 10 10 10 9 11 12
13 10 10 7 12 14 6 8 4 12 4 11 9 1 5 3 6 16 18 5 13 10 12 14 14 15 13 12 11 11 13 15 14 12 11 12 13 12 11 10 9 9 10 10 10 10 10 10 12
14 14 11 12 15 10 11 9 1 4 6 2 6 7 11 3 5 12 15 10 5 14 15 14 15 15 14 13 12 12 13 15 15 13 11 11 11 10 10 9 8 8 9 9 10 10 10 11 11
15 16 14 14 18 18 14 9 8 8 12 13 7 9 6 10 7 5 5 9 8 10 13 16 16 16 15 14 12 12 12 13 14 12 11 11 10 9 8 7 7 7 8 10 10 10 10 11 10
14 16 13 17 18 15 12 11 18 16 17 17 16 13 9 11 11 16 16 9 9 8 13 17 18 17 17 16 14 12 12 12 13 12 11 10 9 8 7 6 6 6 8 10 10 10 10 11 10
11 13 15 16 14 13 7 8 9 18 18 22 19 18 14 14 14 14 17 15 10 13 14 18 19 20 19 17 15 14 14 13 13 12 11 10 9 8 7 5 5 6 8 10 10 9 10 11 9
12 13 15 16 15 13 3 3 5 8 15 22 22 20 21 17 18 18 16 13 13 12 16 20 19 20 20 20 18 17 15 14 14 14 12 11 10 9 7 6 4 6 8 9 9 10 9 10 8
15 17 18 17 17 13 4 2 6 4 17 21 23 18 17 15 19 18 17 19 15 16 21 21 21 21 20 19 19 19 18 17 15 14 13 12 11 9 8 6 5 6 7 9 9 9 9 9 7
17 21 17 16 15 13 11 5 1 4 8 16 17 14 16 14 17 15 19 22 19 19 24 23 21 22 20 19 20 19 19 18 16 15 13 12 11 10 8 7 5 6 8 10 10 9 7 7 8
21 23 19 15 15 16 17 10 4 4 5 10 13 11 12 13 17 17 19 13 12 17 24 23 23 22 21 20 18 17 17 17 17 16 15 13 12 11 8 7 6 7 9 11 10 8 5 6 7
21 22 21 22 22 19 17 17 12 10 11 11 10 11 12 15 17 16 18 18 19 19 20 24 22 21 21 19 18 16 15 16 16 16 16 13 12 11 9 8 7 7 9 11 10 8 5 4 4
22 23 23 25 23 21 20 19 19 17 13 17 15 9 11 12 16 17 18 17 20 21 20 19 21 22 21 21 19 16 15 14 15 16 16 14 12 12 10 9 8 9 9 9 9 7 5 4 3
21 22 24 24 26 23 22 23 21 21 20 18 16 16 19 19 19 19 19 21 22 21 19 20 24 22 22 22 19 17 15 14 15 17 16 14 13 12 10 9 9 10 10 9 8 6 6 5 3
24 23 22 23 27 28 29 26 19 17 24 23 19 18 20 22 25 21 15 10 18 21 22 25 28 28 26 24 21 19 17 15 16 17 16 15 13 12 11 10 9 9 10 9 8 7 6 6 5
19 18 16 19 28 28 28 25 12 20 18 18 22 23 23 27 26 25 21 19 17 17 26 29 31 29 29 26 25 22 19 16 16 17 17 16 17 13 10 10 10 10 11 10 9 8 7 6 4
14 9 10 13 20 22 22 17 21 22 19 20 20 25 28 30 31 31 29 26 24 21 22 30 34 35 32 29 28 25 22 19 18 18 19 19 18 14 11 10 10 10 10 10 9 9 8 6 5
9 12 14 14 19 20 23 22 16 13 24 25 27 31 31 32 34 33 31 28 28 29 30 31 34 37 33 32 31 28 25 22 20 18 17 17 15 12 11 9 10 9 9 11 12 13 9 6 6
7 12 15 17 21 28 25 28 21 17 24 25 27 32 32 33 32 31 30 30 29 31 29 32 33 33 36 40 36 30 28 24 20 18 17 15 12 11 10 9 9 8 9 12 15 16 12 10 8
7 10 12 7 14 18 29 32 20 17 22 24 23 29 37 34 32 36 34 32 29 27 26 34 35 36 38 37 32 31 29 24 19 17 18 15 13 12 11 9 9 9 11 12 13 14 14 13 11
8 11 13 16 21 19 18 14 13 16 16 16 20 23 33 36 33 36 36 33 30 29 28 33 36 37 37 36 33 30 27 26 27 26 20 12 12 13 14 13 13 12 12 12 12 14 15 14 14
12 12 15 17 16 8 15 5 12 16 18 17 18 25 32 37 39 41 41 35 32 29 27 32 35 33 33 39 32 29 24 23 23 26 22 21 19 19 16 15 15 14 15 14 13 14 15 16 14
10 15 17 18 15 13 13 4 13 13 12 9 5 13 26 34 42 48 47 45 40 36 33 31 30 29 32 37 41 24 27 25 24 25 26 22 16 20 21 17 16 16 16 16 16 15 16 16 17
12 18 20 13 5 3 13 8 13 13 18 7 6 7 15 27 37 39 45 52 46 41 37 36 32 28 29 30 32 33 28 27 26 25 28 26 27 26 24 20 17 16 19 18 18 18 19 18 19
16 15 5 3 0 4 3 4 4 6 11 14 6 6 11 21 32 43 49 49 47 45 42 38 36 32 26 25 29 30 31 26 27 29 26 34 29 28 26 20 18 14 16 21 21 21 22 23 22
11 4 2 3 2 4 12 8 5 7 13 15 13 8 9 12 28 38 51 52 51 48 45 42 39 34 30 30 29 30 31 31 27 29 31 34 35 31 28 26 23 20 19 18 19 21 26 25 27
7 3 5 6 11 4 4 2 14 11 15 16 16 11 12 12 21 35 45 49 52 50 48 44 40 35 32 28 31 30 34 33 30 27 31 33 38 37 33 31 32 29 26 22 21 22 24 29 29
7 3 1 5 3 4 5 4 11 14 17 16 21 16 7 12 15 29 39 45 49 49 47 44 40 36 32 28 29 34 32 33 32 34 27 32 35 35 37 37 36 37 34 29 29 25 24 27 30
10 1 6 8 6 3 1 1 12 20 18 20 18 13 13 11 17 23 33 41 44 45 46 44 42 39 34 30 29 32 37 38 38 36 34 34 35 35 36 36 38 39 40 36 34 33 32 30 31
13 8 5 6 1 2 3 3 12 19 18 18 17 10 18 13 15 18 19 28 42 45 46 47 44 42 37 33 29 29 31 35 39 40 38 36 37 37 34 36 36 35 37 39 39 37 36 36 32
Wind_Direction
248 256 264 270 258 234 211 100 77 83 118 92 22 211 230 245 229 181 218 147 150 156 166 168 170 172 176 173 164 160 157 155 147 147 145 144 148 152 150 128 115 101 91 89 94 94 97 101 104
252 252 242 253 243 243 216 139 41 20 357 51 6 355 242 241 255 221 156 154 143 149 173 176 174 180 180 180 174 166 162 160 158 157 159 160 163 158 148 132 117 106 98 94 98 100 98 103 99
257 251 242 239 245 243 210 143 44 335 251 279 335 342 55 198 154 168 172 162 173 159 179 179 185 182 185 186 179 175 169 166 167 166 164 167 165 158 146 138 129 116 106 97 94 97 98 99 92
257 256 245 233 243 249 247 225 219 38 179 275 304 240 154 149 25 145 159 161 191 159 177 185 189 190 189 190 184 183 174 173 168 170 167 161 159 157 149 147 137 123 110 102 95 95 99 98 92
254 256 245 250 254 257 259 252 256 204 246 248 237 200 194 153 107 174 198 153 166 171 181 188 192 196 192 193 190 188 182 177 173 176 174 164 162 159 157 158 149 130 120 112 109 108 107 103 91
248 244 236 242 255 256 257 249 246 238 247 231 219 201 205 187 195 187 186 185 166 194 206 193 194 203 197 193 193 192 190 184 179 182 181 174 170 164 163 167 151 133 122 116 115 114 110 100 87
240 246 242 244 245 233 225 289 262 238 258 215 223 196 203 185 189 185 187 186 197 196 207 210 201 201 200 198 198 196 191 191 188 189 189 180 180 174 172 177 156 133 126 120 117 115 102 97 84
239 243 242 239 238 233 252 44 3 248 217 199 207 210 209 199 176 175 186 191 189 217 214 213 213 208 203 201 198 201 195 195 192 190 190 186 189 180 179 180 173 138 133 125 122 117 110 93 78
235 240 244 244 241 234 251 201 74 132 195 197 193 194 208 222 182 190 208 199 202 215 218 213 214 213 210 206 206 200 197 197 197 191 190 194 193 190 185 187 178 147 141 130 123 120 117 107 99
231 240 244 242 237 228 211 216 178 354 201 193 199 205 188 202 205 234 222 199 215 218 213 210 215 220 216 213 212 209 206 204 198 195 199 199 202 200 196 190 183 152 145 131 122 123 121 109 102
234 239 235 234 244 247 231 208 233 296 260 244 235 220 211 215 216 221 215 218 238 240 223 215 215 216 218 220 219 218 217 210 201 200 201 204 207 208 207 197 187 164 151 137 128 124 122 122 116
235 239 243 242 249 253 238 220 216 225 240 254 261 262 248 224 210 214 206 223 222 219 224 220 219 222 220 218 220 221 218 215 207 207 207 211 213 214 209 205 188 171 159 147 140 134 130 115 106
239 237 241 247 247 251 245 230 231 223 230 233 242 227 211 218 210 217 215 222 227 227 225 232 229 228 223 220 217 215 214 211 209 210 214 214 209 209 206 207 190 176 168 156 148 139 131 130 132
246 244 243 245 252 252 254 247 250 242 244 245 246 219 212 215 218 219 221 224 220 218 216 237 237 229 228 226 219 214 212 209 207 209 216 216 206 206 208 204 194 183 177 163 153 153 155 175 164
254 252 244 243 243 252 249 247 245 261 266 260 252 236 228 222 220 224 220 224 229 228 220 219 219 235 225 223 218 217 211 207 210 211 215 215 214 211 206 203 198 189 191 172 169 167 170 183 182
253 263 251 237 237 243 248 247 213 229 228 263 260 239 230 225 229 231 223 224 220 228 235 235 237 234 225 224 219 216 212 206 212 214 213 212 217 223 213 208 204 194 204 193 186 178 183 193 195
261 253 265 236 247 237 246 244 229 219 225 221 231 239 237 231 229 231 232 233 239 250 252 241 237 235 225 221 221 216 215 207 212 216 213 210 218 224 215 210 213 205 211 214 210 208 198 194 208
308 304 301 303 259 246 244 264 254 263 238 229 226 222 239 240 236 235 238 239 246 253 257 243 235 233 223 221 221 216 214 207 209 207 205 211 215 215 217 212 219 218 222 227 230 229 223 214 221
311 300 298 297 293 283 270 282 313 275 249 251 240 230 225 241 243 239 238 248 254 262 252 230 230 224 222 219 217 213 213 207 206 202 198 204 204 208 216 215 220 230 237 229 233 238 239 241 237
327 329 321 303 302 298 277 280 297 283 275 267 251 240 234 222 232 237 235 241 249 266 240 222 224 227 234 222 221 219 212 205 204 206 201 198 195 200 205 205 209 214 228 242 248 250 250 255 259
328 321 324 321 311 309 309 307 255 256 266 264 260 248 233 227 214 231 239 244 246 255 236 225 230 225 229 226 227 221 202 209 208 204 195 204 215 209 211 210 207 212 223 236 241 245 252 254 258
321 314 312 311 319 318 316 282 291 271 265 274 248 244 236 224 212 210 222 236 246 255 237 223 229 232 235 229 239 226 234 218 218 210 201 186 223 239 227 231 229 226 226 225 234 240 245 253 260
314 312 311 308 297 301 289 253 338 315 280 265 244 220 220 218 212 210 211 216 220 220 218 228 236 229 232 234 210 224 234 223 219 219 207 199 208 225 230 239 242 239 241 242 236 233 241 249 257
318 316 309 292 267 238 271 238 19 16 336 311 282 193 185 193 207 209 203 208 212 216 220 221 225 230 231 231 235 231 236 236 232 221 220 214 225 220 226 237 243 244 237 238 247 246 243 243 243
321 332 342 355 57 229 20 33 71 349 329 341 295 227 175 173 192 195 198 202 208 214 219 224 219 221 226 227 232 237 238 237 240 239 230 227 230 221 224 230 251 249 252 249 254 257 254 249 244
327 335 338 297 282 295 308 156 175 334 318 310 332 269 193 158 175 192 201 203 208 214 220 222 223 218 216 223 221 226 235 235 239 241 239 225 225 225 228 233 246 248 254 259 253 264 264 264 264
335 219 254 259 274 270 224 128 212 261 313 312 283 300 215 186 164 179 191 196 206 214 218 222 224 225 229 224 227 224 222 224 230 235 243 240 224 225 230 239 244 249 252 254 261 265 256 249 257
353 266 233 228 236 241 105 65 332 309 302 314 305 295 254 199 176 178 186 194 203 211 216 221 226 227 233 244 241 232 230 228 224 224 227 235 233 233 235 242 246 248 250 255 263 266 262 257 259
18 257 249 251 243 267 159 131 345 339 332 335 317 308 342 213 195 178 188 195 203 210 217 219 225 232 237 245 246 238 227 231 231 232 232 229 232 237 239 243 247 249 250 250 257 260 264 267 262
30 346 253 270 246 40 113 201 331 331 332 334 329 333 348 305 199 189 188 195 204 209 214 223 226 228 233 236 240 240 240 232 234 233 235 237 242 241 244 245 248 248 251 254 256 258 258 262 266